| time (UTC) | temp F | wind direction | speed MPH | gust MPH | rain 1hr in | rain 24hr in | rain mn in | humidity % | barometer mb |
| 20260504141322 | 63 | 248 | 8.0 | 13.0 | 0.00 | 0.00 | 0.00 | 51 | 1011.3 |
| 20260504140326 | 61 | 220 | 6.0 | 15.0 | 0.00 | 0.00 | 0.00 | 52 | 1011.3 |
| 20260504130322 | 51 | 270 | 0.0 | 0.0 | 0.00 | 0.00 | 0.00 | 79 | 1011.8 |
| 20260504110321 | 34 | 269 | 0.0 | 0.0 | 0.00 | 0.00 | 0.00 | 96 | 1012.1 |
| 20260504100321 | 33 | 270 | 0.0 | 0.0 | 0.00 | 0.00 | 0.00 | 96 | 944.6 |
| 20260504081350 | 35 | 271 | 0.0 | 0.0 | 0.00 | 0.00 | 0.00 | 95 | 1012.2 |
| 20260504080327 | 35 | 271 | 0.0 | 0.0 | 0.00 | 0.00 | 0.00 | 95 | 1012.1 |
| 20260504070326 | 36 | 270 | 0.0 | 0.0 | 0.00 | 0.00 | 0.00 | 94 | 1012.1 |
| 20260504050322 | 38 | 270 | 0.0 | 0.0 | 0.00 | 0.00 | 0.00 | 92 | 1012.2 |
| 20260504045359 | 38 | 270 | 0.0 | 0.0 | 0.00 | 0.00 | 0.00 | 91 | 1012.2 |
| 20260504044321 | 39 | 270 | 0.0 | 0.0 | 0.00 | 0.00 | 0.00 | 91 | 1012.2 |
| 20260504043321 | 39 | 271 | 0.0 | 0.0 | 0.00 | 0.00 | 0.00 | 90 | 1012.2 |
| 20260504042324 | 39 | 271 | 0.0 | 0.0 | 0.00 | 0.00 | 0.00 | 89 | 1012.2 |
| 20260504041322 | 39 | 270 | 0.0 | 0.0 | 0.00 | 0.00 | 0.00 | 89 | 1012.1 |
| 20260504040400 | 40 | 271 | 0.0 | 0.0 | 0.00 | 0.00 | 0.00 | 88 | 1012.1 |
| 20260504035337 | 40 | 270 | 0.0 | 0.0 | 0.00 | 0.00 | 0.00 | 88 | 1012.0 |
| 20260504034341 | 40 | 271 | 0.0 | 0.0 | 0.00 | 0.00 | 0.00 | 87 | 1012.0 |
| 20260504033322 | 41 | 271 | 0.0 | 0.0 | 0.00 | 0.00 | 0.00 | 86 | 1011.9 |
| 20260504032322 | 41 | 271 | 0.0 | 0.0 | 0.00 | 0.00 | 0.00 | 86 | 1011.8 |
| 20260504031326 | 42 | 270 | 0.0 | 0.0 | 0.00 | 0.00 | 0.00 | 85 | 1011.7 |
| 20260504030325 | 42 | 271 | 0.0 | 0.0 | 0.00 | 0.00 | 0.00 | 84 | 1012.6 |
| 20260504025322 | 42 | 271 | 0.0 | 0.0 | 0.00 | 0.00 | 0.00 | 84 | 1011.7 |
| 20260504024339 | 43 | 271 | 0.0 | 0.0 | 0.00 | 0.00 | 0.00 | 83 | 1005.3 |
| 20260504023321 | 44 | 270 | 0.0 | 0.0 | 0.00 | 0.00 | 0.00 | 81 | 1011.7 |
| 20260504022324 | 44 | 270 | 0.0 | 0.0 | 0.00 | 0.00 | 0.00 | 80 | 1011.7 |
| 20260504021321 | 45 | 271 | 0.0 | 0.0 | 0.00 | 0.00 | 0.00 | 78 | 1011.7 |
| 20260504020321 | 45 | 271 | 0.0 | 0.0 | 0.00 | 0.00 | 0.00 | 76 | 1007.7 |
| 20260504015344 | 46 | 271 | 0.0 | 0.0 | 0.00 | 0.00 | 0.00 | 73 | 1011.8 |
| 20260504014321 | 47 | 270 | 0.0 | 0.0 | 0.00 | 0.00 | 0.00 | 71 | 1013.5 |
| 20260504013338 | 46 | 270 | 0.0 | 0.0 | 0.00 | 0.00 | 0.00 | 76 | 880.8 |
| 20260504012337 | 47 | 271 | 0.0 | 0.0 | 0.00 | 0.00 | 0.00 | 73 | 1022.3 |
| 20260504011326 | 49 | 270 | 0.0 | 0.0 | 0.00 | 0.00 | 0.00 | 68 | 876.3 |
| 20260504010324 | 49 | 271 | 0.0 | 0.0 | 0.00 | 0.00 | 0.00 | 66 | 1009.2 |
| 20260504005323 | 52 | 271 | 0.0 | 0.0 | 0.00 | 0.00 | 0.00 | 59 | 1011.1 |
| 20260504004322 | 52 | 271 | 0.0 | 0.0 | 0.00 | 0.00 | 0.00 | 55 | 1011.1 |
| 20260504003322 | 53 | 271 | 0.0 | 0.0 | 0.00 | 0.00 | 0.00 | 54 | 1011.0 |
| 20260504002400 | 53 | 271 | 0.0 | 0.0 | 0.00 | 0.00 | 0.00 | 55 | 1011.0 |
| 20260504001337 | 54 | 271 | 0.0 | 0.0 | 0.00 | 0.00 | 0.00 | 52 | 1010.8 |
| 20260504000325 | 55 | 271 | 0.0 | 4.0 | 0.00 | 0.00 | 0.00 | 52 | 1010.8 |
| 20260503235343 | 55 | 271 | 0.0 | 0.0 | 0.00 | 0.00 | 0.00 | 50 | 1010.7 |
| 20260503234321 | 55 | 271 | 3.0 | 6.0 | 0.00 | 0.00 | 0.00 | 51 | 1010.7 |
| 20260503233346 | 56 | 237 | 1.0 | 8.0 | 0.00 | 0.00 | 0.00 | 49 | 1010.5 |
| 20260503232325 | 56 | 248 | 2.0 | 11.0 | 0.00 | 0.00 | 0.00 | 49 | 1010.5 |
| 20260503231342 | 57 | 271 | 2.0 | 11.0 | 0.00 | 0.00 | 0.00 | 48 | 1010.5 |
| 20260503230340 | 57 | 240 | 4.0 | 9.0 | 0.00 | 0.00 | 0.00 | 47 | 1010.6 |
| 20260503225338 | 58 | 290 | 1.0 | 10.0 | 0.00 | 0.00 | 0.00 | 47 | 1010.5 |
| 20260503224321 | 58 | 223 | 5.0 | 18.0 | 0.00 | 0.00 | 0.00 | 46 | 1010.4 |
| 20260503223325 | 59 | 304 | 4.0 | 12.0 | 0.00 | 0.00 | 0.00 | 46 | 1010.4 |
| 20260503222344 | 60 | 250 | 0.0 | 15.0 | 0.00 | 0.00 | 0.00 | 46 | 1010.5 |
| 20260503221339 | 60 | 261 | 7.0 | 16.0 | 0.00 | 0.00 | 0.00 | 45 | 946.1 |
| 20260503220339 | 60 | 256 | 5.0 | 17.0 | 0.00 | 0.00 | 0.00 | 48 | 1010.6 |
| 20260503215337 | 59 | 297 | 1.0 | 9.0 | 0.00 | 0.00 | 0.00 | 43 | 1010.6 |
| 20260503214322 | 59 | 268 | 5.0 | 13.0 | 0.00 | 0.00 | 0.00 | 46 | 1010.5 |
| 20260503213325 | 59 | 346 | 3.0 | 12.0 | 0.00 | 0.00 | 0.00 | 47 | 1010.3 |
| 20260503212324 | 59 | 293 | 7.0 | 20.0 | 0.00 | 0.00 | 0.00 | 48 | 1010.2 |
| 20260503211324 | 60 | 250 | 7.0 | 15.0 | 0.00 | 0.00 | 0.00 | 45 | 1010.3 |
| 20260503210326 | 61 | 304 | 9.0 | 18.0 | 0.00 | 0.00 | 0.00 | 46 | 1010.3 |
| 20260503205322 | 60 | 311 | 3.0 | 13.0 | 0.00 | 0.00 | 0.00 | 49 | 1010.3 |
| 20260503204321 | 62 | 254 | 4.0 | 15.0 | 0.00 | 0.00 | 0.00 | 44 | 1010.4 |
| 20260503203323 | 63 | 334 | 4.0 | 25.0 | 0.00 | 0.00 | 0.00 | 44 | 1010.3 |
| 20260503202322 | 61 | 247 | 2.0 | 11.0 | 0.00 | 0.00 | 0.00 | 46 | 1010.2 |
| 20260503201338 | 60 | 242 | 9.0 | 16.0 | 0.00 | 0.00 | 0.00 | 45 | 1010.3 |
| 20260503200332 | 61 | 293 | 7.0 | 11.0 | 0.00 | 0.00 | 0.00 | 45 | 1010.6 |
| 20260503195336 | 63 | 334 | 5.0 | 13.0 | 0.00 | 0.00 | 0.00 | 41 | 1010.7 |
| 20260503194348 | 61 | 347 | 5.0 | 17.0 | 0.00 | 0.00 | 0.00 | 46 | 1010.7 |
| 20260503193345 | 64 | 281 | 7.0 | 17.0 | 0.00 | 0.00 | 0.00 | 42 | 1010.7 |
| 20260503192321 | 63 | 256 | 1.0 | 15.0 | 0.00 | 0.00 | 0.00 | 48 | 1010.8 |
| 20260503191324 | 60 | 279 | 2.0 | 10.0 | 0.00 | 0.00 | 0.00 | 43 | 1010.9 |
| 20260503190343 | 61 | 271 | 6.0 | 18.0 | 0.00 | 0.00 | 0.00 | 45 | 1011.1 |
| 20260503185321 | 61 | 282 | 5.0 | 15.0 | 0.00 | 0.00 | 0.00 | 40 | 1011.0 |
| 20260503184324 | 60 | 301 | 4.0 | 11.0 | 0.00 | 0.00 | 0.00 | 47 | 1011.3 |
| 20260503183322 | 61 | 320 | 6.0 | 11.0 | 0.00 | 0.00 | 0.00 | 49 | 1011.4 |
| 20260503182340 | 60 | 312 | 3.0 | 9.0 | 0.00 | 0.00 | 0.00 | 44 | 1011.6 |
| 20260503181339 | 62 | 257 | 9.0 | 21.0 | 0.00 | 0.00 | 0.00 | 46 | 1011.7 |
| 20260503180324 | 60 | 292 | 5.0 | 19.0 | 0.00 | 0.00 | 0.00 | 49 | 1012.0 |
| 20260503175323 | 60 | 262 | 9.0 | 15.0 | 0.00 | 0.00 | 0.00 | 49 | 1011.9 |
| 20260503174321 | 58 | 299 | 6.0 | 19.0 | 0.00 | 0.00 | 0.00 | 50 | 1012.0 |
| 20260503173325 | 57 | 290 | 3.0 | 12.0 | 0.00 | 0.00 | 0.00 | 53 | 1012.4 |
| 20260503172343 | 57 | 332 | 1.0 | 15.0 | 0.00 | 0.00 | 0.00 | 44 | 1012.2 |
| 20260503171339 | 56 | 269 | 2.0 | 12.0 | 0.00 | 0.00 | 0.00 | 52 | 1012.3 |
| 20260503170337 | 55 | 319 | 5.0 | 14.0 | 0.00 | 0.00 | 0.00 | 50 | 1012.6 |
| 20260503150328 | 51 | 15 | 7.0 | 14.0 | 0.00 | 0.00 | 0.00 | 48 | 1013.1 |